User: anonymous   Login
Location: Plymouth
(43.7570°N, 71.6890°W)
Time: 08:54:39
(UTC-05:00)
Language:

Cosmos 2016 Rocket - Orbit

View from above orbital plane
View from above orbital plane
View from above satellite
View from above satellite

Ground track
Ground track

The orbit data is extracted from the following two-line orbital elements,

1 19922U 89028B   17345.94622373 +.00000021 +00000-0 +54966-5 0  9994
2 19922 082.9591 294.9083 0037859 106.9604 253.5708 13.77199763441442
Epoch (UTC): 11 December 2017 22:42:33
Eccentricity: 0.0037859
inclination: 82.9591°
perigee height: 946 km
apogee height: 1001 km
right ascension of ascending node: 294.9083°
argument of perigee: 106.9604°
revolutions per day: 13.77199763
mean anomaly at epoch: 253.5708°
orbit number at epoch: 44144

The dashed part of the orbit path shows where the satellite is in the earth's shadow,  

DLR